This is the latest recevied weather packets stored in our database for station/object N8VDS-10. If no packets are shown the sender has not sent any weather packets the latest 10 day(s).
| Time | Temp. | Humidity | Pressure | Rain* | Wind** | Luminosity | Snow |
|---|---|---|---|---|---|---|---|
| 1777938701 | 22.78° C | 43% | 1001.5 hPa | 0 mm | - | 31 W/m² | - |
| 1777938398 | 22.78° C | 43% | 1001.6 hPa | 0 mm | - | 32 W/m² | - |
| 1777938096 | 22.78° C | 42% | 1001.5 hPa | 0 mm | - | 30 W/m² | - |
| 1777937791 | 23.33° C | 43% | 1001.7 hPa | 0 mm | - | 35 W/m² | - |
| 1777937487 | 23.33° C | 42% | 1001.6 hPa | 0 mm | - | 48 W/m² | - |
| 1777937185 | 23.33° C | 42% | 1001.7 hPa | 0 mm | - | 68 W/m² | - |
| 1777936882 | 23.89° C | 41% | 1001.7 hPa | 0 mm | - | 83 W/m² | - |
| 1777936578 | 23.33° C | 41% | 1001.7 hPa | 0 mm | - | 91 W/m² | - |
| 1777936275 | 23.33° C | 41% | 1001.8 hPa | 0 mm | - | 80 W/m² | - |
| 1777935971 | 23.89° C | 40% | 1001.8 hPa | 0 mm | - | 126 W/m² | - |
| 1777935670 | 23.89° C | 39% | 1001.7 hPa | 0 mm | - | 128 W/m² | - |
| 1777935367 | 23.89° C | 39% | 1001.8 hPa | 0 mm | - | 144 W/m² | - |
| 1777935064 | 23.89° C | 39% | 1002.1 hPa | 0 mm | - | 150 W/m² | - |
| 1777934760 | 23.89° C | 38% | 1002 hPa | 0 mm | - | 155 W/m² | - |
| 1777934458 | 23.89° C | 38% | 1001.8 hPa | 0 mm | - | 168 W/m² | - |
| 1777934154 | 23.89° C | 37% | 1002.1 hPa | 0 mm | - | 189 W/m² | - |
| 1777933850 | 23.89° C | 36% | 1002.2 hPa | 0 mm | - | 186 W/m² | - |
| 1777933547 | 23.33° C | 36% | 1002.3 hPa | 0 mm | - | 199 W/m² | - |
| 1777933244 | 23.89° C | 36% | 1002.3 hPa | 0 mm | - | 83 W/m² | - |
| 1777932942 | 23.89° C | 34% | 1002.4 hPa | 0 mm | - | 223 W/m² | - |
| 1777932638 | 23.89° C | 33% | 1002.3 hPa | 0 mm | - | 231 W/m² | - |
| 1777932335 | 23.89° C | 33% | 1002.7 hPa | 0 mm | - | 272 W/m² | - |
| 1777932032 | 23.89° C | 33% | 1002.5 hPa | 0 mm | - | 244 W/m² | - |
| 1777931728 | 23.89° C | 33% | 1002.4 hPa | 0 mm | - | 303 W/m² | - |
| 1777931426 | 25° C | 32% | 1002.4 hPa | 0 mm | - | 310 W/m² | - |
* Rain latest hour (hover to see other rain measurements)
** Current wind speed in m/s (hover to see current wind gust speed)